This demonstration page uses our WeatherBlox Daily Observations layout. Learn more.

Left ArrowRight Arrow

39.51506, -84.39828

Hourly Observations for January 4, 2019

Temp ( °F °C ) Dew Point ( °F °C ) Humidity (%) Winds ( mph kmh ) Pressure ( in mb ) Visibility ( mi km ) Precip ( " mm )
12:15 am 00:15 Clear with Mist and Fog 27 -2.9 26 -3.2 98 98 Calm 30.06 1018 4 6 0.00 0.00
12:35 am 00:35 Clear with Mist and Fog 29 -1.8 28 -2.1 98 98 Calm 30.06 1018 5 8 0.00 0.00
12:55 am 00:55 Clear with Mist and Fog 29 -1.4 29 -1.7 98 98 Calm 30.06 1018 4 6 0.00 0.00
1:15 am 01:15 Clear with Mist and Fog 28 -2.1 28 -2.4 98 98 Calm 30.06 1018 2 3 0.00 0.00
1:35 am 01:35 Clear with Mist and Fog 29 -1.7 29 -1.9 99 99 Calm 30.06 1018 3 4 0.00 0.00
1:55 am 01:55 Clear with Mist and Fog 29 -1.9 28 -2.2 98 98 Calm 30.06 1018 4 6 0.00 0.00
2:15 am 02:15 Mostly Cloudy with Mist and Fog 28 -2.1 28 -2.4 98 98 Calm 30.06 1018 2 2 0.00 0.00
2:35 am 02:35 Mostly Cloudy with Mist and Fog 28 -2.1 28 -2.3 99 99 Calm 30.03 1017 2 3 0.00 0.00
2:55 am 02:55 Clear with Mist and Fog 29 -1.9 28 -2.1 99 99 Calm 30.03 1017 3 5 0.00 0.00
3:15 am 03:15 Clear with Mist and Fog 28 -2.4 27 -2.6 99 99 Calm 30.03 1017 4 6 0.00 0.00
3:35 am 03:35 Clear with Mist and Fog 28 -2.2 27 -2.6 97 97 Calm 30.03 1017 3 5 0.00 0.00
3:55 am 03:55 Clear with Mist and Fog 29 -1.9 28 -2.2 98 98 Calm 30.03 1017 3 5 0.00 0.00
4:15 am 04:15 Clear with Mist and Fog 28 -2.1 28 -2.4 98 98 Calm 30.03 1017 3 4 0.00 0.00
4:35 am 04:35 Clear with Mist and Fog 28 -2.3 27 -2.6 98 98 Calm 30.00 1016 4 6 0.00 0.00
4:55 am 04:55 Clear with Mist and Fog 28 -2.5 27 -2.8 98 98 Calm 30.00 1016 4 6 0.00 0.00
5:15 am 05:15 Clear with Mist and Fog 28 -2 28 -2.3 98 98 Calm 30.00 1016 4 6 0.00 0.00
5:35 am 05:35 Clear with Mist and Fog 29 -1.9 28 -2.3 97 97 Calm 30.00 1016 4 6 0.00 0.00
5:55 am 05:55 Clear with Mist and Fog 28 -2.3 27 -2.7 97 97 Calm 30.00 1016 4 6 0.00 0.00
6:15 am 06:15 Clear with Mist and Fog 28 -2.1 28 -2.4 98 98 Calm 29.97 1015 4 6 0.00 0.00
6:35 am 06:35 Clear with Mist and Fog 28 -2.3 27 -2.6 98 98 N 3 6 29.97 1015 4 6 0.00 0.00
6:55 am 06:55 Clear with Mist and Fog 28 -2.1 28 -2.5 97 97 N 6 9 29.94 1014 4 6 0.00 0.00
7:15 am 07:15 Clear with Mist and Fog 28 -2.1 27 -2.6 96 96 Calm 29.94 1014 4 6 0.00 0.00
7:35 am 07:35 Clear with Mist and Fog 29 -1.6 28 -2 97 97 Calm 29.94 1014 4 6 0.00 0.00
7:55 am 07:55 Clear with Mist and Fog 29 -1.6 28 -2 97 97 Calm 29.94 1014 3 4 0.00 0.00
8:15 am 08:15 Sunny with Mist and Fog 28 -2.2 27 -2.6 97 97 Calm 29.94 1014 3 4 0.00 0.00
8:35 am 08:35 Sunny with Mist and Fog 28 -2.3 27 -2.7 97 97 Calm 29.94 1014 3 4 0.00 0.00
8:55 am 08:55 Sunny with Mist and Fog 30 -1.3 29 -1.6 98 98 NE 3 6 29.94 1014 3 4 0.00 0.00
9:15 am 09:15 Sunny with Mist and Fog 30 -1 29 -1.4 97 97 NNW 3 6 29.94 1014 3 5 0.00 0.00
9:35 am 09:35 Sunny with Mist and Fog 31 -0.7 30 -1.2 96 96 Calm 29.94 1014 4 6 0.00 0.00
9:55 am 09:55 Sunny with Mist and Fog 32 0.2 31 -0.3 96 96 NE 5 7 29.94 1014 3 5 0.00 0.00
10:15 am 10:15 Sunny with Mist and Fog 35 1.6 33 0.4 92 92 Calm 29.94 1014 5 8 0.00 0.00
10:35 am 10:35 Sunny with Mist and Fog 37 3 33 0.6 84 84 ENE 3 6 29.91 1013 7 11 0.00 0.00
10:55 am 10:55 Sunny 37 2.8 32 0 82 82 ENE 3 6 29.88 1012 7 11 0.00 0.00
11:15 am 11:15 Sunny 37 3 32 0.1 81 81 NE 3 6 29.88 1012 7 11 0.00 0.00
11:35 am 11:35 Sunny 39 4 33 0.4 78 78 NNE 5 7 29.85 1011 7 11 0.00 0.00
11:55 am 11:55 Sunny 42 5.4 33 0.6 71 71 NNE 6 9 29.85 1011 10 16 0.00 0.00
12:15 pm 12:15 Sunny 44 6.9 32 0.1 62 62 NNE 7 11 29.83 1010 10 16 0.00 0.00
12:35 pm 12:35 Sunny 47 8.2 29 -1.4 51 51 ENE 9 15 29.80 1009 10 16 0.00 0.00
12:55 pm 12:55 Sunny 50 9.9 29 -1.7 45 45 ENE 8 13 29.80 1009 10 16 0.00 0.00
1:15 pm 13:15 Sunny 52 10.9 26 -3.1 38 38 NE 10 17 29.77 1008 10 16 0.00 0.00
1:35 pm 13:35 Sunny 52 11.3 27 -2.9 37 37 ENE 13 20 29.74 1007 10 16 0.00 0.00
1:55 pm 13:55 Sunny 52 11.3 27 -2.9 37 37 NE 13 20 29.74 1007 10 16 0.00 0.00
2:15 pm 14:15 Sunny 53 11.5 26 -3.3 36 36 NE 10 17 29.71 1006 10 16 0.00 0.00
2:35 pm 14:35 Sunny 53 11.5 26 -3.6 35 35 ENE 13 20 29.71 1006 10 16 0.00 0.00
2:55 pm 14:55 Sunny 51 10.8 26 -3.1 38 38 ENE 9 15 29.71 1006 10 16 0.00 0.00
3:15 pm 15:15 Sunny 51 10.8 28 -2.5 40 40 NE 12 19 29.68 1005 10 16 0.00 0.00
3:35 pm 15:35 Sunny 51 10.4 28 -2.3 41 41 NE 12 19 29.68 1005 10 16 0.00 0.00
3:55 pm 15:55 Cloudy 50 10 29 -1.9 44 44 ENE 14 22 29.68 1005 10 16 0.00 0.00
4:15 pm 16:15 Cloudy 49 9.7 29 -1.6 46 46 ENE 10 17 29.68 1005 10 16 0.00 0.00
4:35 pm 16:35 Cloudy with Light Rain 47 8.4 31 -0.6 53 53 NE 9 15 29.68 1005 10 16 0.00 0.00
4:55 pm 16:55 Cloudy with Light Rain 46 7.7 32 0.1 59 59 NE 9 15 29.68 1005 10 16 0.00 0.00
5:15 pm 17:15 Cloudy with Light Rain 44 6.9 34 0.9 66 66 NNE 9 15 29.68 1005 7 11 0.00 0.00
5:35 pm 17:35 Cloudy with Rain 43 6 36 2.2 77 77 N 5 7 29.68 1005 5 8 0.02 0.51
5:55 pm 17:55 Cloudy with Rain 42 5.4 38 3.2 86 86 NNE 6 9 29.68 1005 7 11 0.06 1.52
6:15 pm 18:15 Cloudy with Rain 42 5.4 38 3.1 85 85 NNE 7 11 29.68 1005 5 8 0.03 0.76
6:35 pm 18:35 Cloudy with Rain 41 5.1 38 3.5 90 90 W 3 6 29.71 1006 4 6 0.08 2.03
6:55 pm 18:55 Cloudy with Light Rain 41 4.8 38 3.6 92 92 NNW 6 9 29.71 1006 5 8 0.16 4.06
7:15 pm 19:15 Cloudy with Light Rain 40 4.7 39 3.7 93 93 N 7 11 29.68 1005 5 8 0.06 1.52
7:35 pm 19:35 Cloudy with Rain 41 4.8 38 3.5 91 91 NNE 9 15 29.68 1005 5 8 0.12 3.05
7:55 pm 19:55 Cloudy with Rain 40 4.7 38 3.6 93 93 NNE 7 11 29.68 1005 5 8 0.16 4.06
8:15 pm 20:15 Cloudy with Rain 40 4.6 38 3.6 93 93 N 9 15 29.68 1005 7 11 0.04 1.02
8:35 pm 20:35 Cloudy with Rain 40 4.6 38 3.6 93 93 N 12 19 29.68 1005 5 8 0.06 1.52
8:55 pm 20:55 Cloudy with Rain 40 4.4 38 3.6 95 95 N 15 24 29.68 1005 5 8 0.11 2.79
9:15 pm 21:15 Cloudy with Rain 40 4.2 38 3.1 93 93 NNW 9 15 29.68 1005 7 11 0.04 1.02
9:35 pm 21:35 Cloudy with Rain 40 4.3 37 2.9 91 91 N 12 19 29.68 1005 7 11 0.08 2.03
9:55 pm 21:55 Cloudy with Rain 40 4.2 37 2.7 90 90 N 13 20 29.65 1004 7 11 0.13 3.30
10:15 pm 22:15 Cloudy with Light Rain 40 4.3 37 2.7 89 89 NNE 5 7 29.68 1005 10 16 0.02 0.51
10:35 pm 22:35 Cloudy with Light Rain 40 4.4 37 2.9 90 90 Calm 29.68 1005 10 16 0.02 0.51
10:55 pm 22:55 Cloudy with Light Rain 40 4.4 37 2.9 90 90 Calm 29.68 1005 10 16 0.02 0.51
11:15 pm 23:15 Cloudy with Light Rain 39 4.1 38 3.4 95 95 W 3 6 29.71 1006 7 11 0.00 0.00
11:35 pm 23:35 Cloudy with Light Rain 40 4.2 38 3.5 95 95 Calm 29.71 1006 10 16 0.01 0.25
11:55 pm 23:55 Cloudy with Light Rain 40 4.2 38 3.5 95 95 WSW 3 6 29.71 1006 7 11 0.02 0.51

Powered by AerisWeather